Weather History for KLWM - March, 2013

Change the Weather History Date:

Wednesday, March 20, 2013

  Actual Average Record
Temperature  
Mean Temperature 31 °F -  
Max Temperature 37 °F 46 °F 82 °F (2012)
Min Temperature 25 °F 28 °F 8 °F (1949)
Degree Days  
Heating Degree Days 34    
Moisture  
Dew Point 20 °F    
Average Humidity 64    
Maximum Humidity 81    
Minimum Humidity 44    
Precipitation  
Precipitation 0.00 in - - ()
Sea Level Pressure  
Sea Level Pressure 29.75 in    
Wind  
Wind Speed 10 mph (West)    
Max Wind Speed 23 mph    
Max Gust Speed 30 mph    
Visibility 10 miles    
Events Snow    
Averages and records for this station are not official NWS values.
T = Trace of Precipitation, MM = Missing Value Source: NWS Daily Summary

Daily Weather History Graph

Daily Weather History Graph

Search for Another Location

Airport or City:

Trip Planner

Search our weather history database for the weather conditions in past years. The results will help you decide how hot, cold, wet, or windy it might be!

Date:

Astronomy

Mar. 20, 2013 Rise Set
Actual Time 6:47 AM EDT 6:57 PM EDT
Civil Twilight 6:19 AM EDT 7:25 PM EDT
Nautical Twilight 5:46 AM EDT 7:58 PM EDT
Astronomical Twilight 5:12 AM EDT 8:32 PM EDT
Moon 12:22 PM EDT (3/20) 2:32 AM EDT (3/20)
Length of Visible Light 13h 05m
Length of Day
12h 09m
First Quarter, 59% of the Moon is Illuminated
Mar 20
First Quarter
Mar 27
Full
Apr 3
Last Quarter
Apr 10
New
Apr 18
First Quarter

Hourly Weather History & Observations

Time (EDT) Temp. Windchill Dew Point Humidity Pressure Visibility Wind Dir Wind Speed Gust Speed Precip Events Conditions
12:12 AM 26.6 °F 18.2 °F 21.2 °F 80% 29.71 in 6.0 mi NW 8.1 mph - 0.00 in Snow Light Snow
12:29 AM 26.6 °F 17.5 °F 21.2 °F 80% 29.71 in 9.0 mi NW 9.2 mph - 0.00 in   Overcast
12:54 AM 27.0 °F 19.5 °F 21.9 °F 81% 29.73 in 10.0 mi NNW 6.9 mph - 0.00 in   Overcast
1:54 AM 27.0 °F 18.7 °F 21.0 °F 78% 29.73 in 10.0 mi NW 8.1 mph - N/A   Overcast
2:54 AM 27.0 °F 21.6 °F 21.9 °F 81% 29.72 in 10.0 mi WNW 4.6 mph - N/A   Overcast
3:54 AM 25.0 °F 16.3 °F 19.9 °F 81% 29.73 in 10.0 mi WSW 8.1 mph - N/A   Partly Cloudy
4:54 AM 27.0 °F 20.5 °F 21.9 °F 81% 29.72 in 10.0 mi SW 5.8 mph - N/A   Overcast
5:54 AM 28.0 °F 19.3 °F 21.9 °F 78% 29.73 in 10.0 mi WSW 9.2 mph - N/A   Overcast
6:54 AM 28.0 °F 18.1 °F 21.0 °F 75% 29.73 in 10.0 mi WSW 11.5 mph - N/A   Overcast
7:54 AM 28.0 °F 17.5 °F 19.9 °F 72% 29.75 in 10.0 mi WSW 12.7 mph - N/A   Overcast
8:54 AM 28.0 °F 17.5 °F 19.9 °F 72% 29.74 in 10.0 mi West 12.7 mph 23.0 mph N/A   Mostly Cloudy
9:54 AM 30.0 °F 19.1 °F 21.0 °F 69% 29.73 in 10.0 mi West 15.0 mph 20.7 mph N/A   Partly Cloudy
10:54 AM 32.0 °F 22.1 °F 21.0 °F 64% 29.74 in 10.0 mi West 13.8 mph 24.2 mph N/A   Scattered Clouds
11:54 AM 33.1 °F 20.6 °F 19.9 °F 59% 29.74 in 10.0 mi WSW 23.0 mph 29.9 mph N/A   Overcast
12:54 PM 35.1 °F 24.5 °F 19.0 °F 52% 29.74 in 10.0 mi West 18.4 mph 28.8 mph N/A   Overcast
1:54 PM 36.0 °F 27.1 °F 19.0 °F 50% 29.74 in 10.0 mi West 13.8 mph 28.8 mph N/A   Overcast
2:54 PM 37.0 °F 25.9 °F 18.0 °F 46% 29.73 in 10.0 mi West 23.0 mph 29.9 mph N/A   Mostly Cloudy
3:54 PM 36.0 °F 25.0 °F 18.0 °F 48% 29.73 in 10.0 mi WSW 20.7 mph 28.8 mph N/A   Overcast
4:54 PM 37.9 °F 30.0 °F 18.0 °F 45% 29.73 in 10.0 mi West 12.7 mph 23.0 mph N/A   Partly Cloudy
5:54 PM 37.0 °F 28.9 °F 17.1 °F 44% 29.75 in 10.0 mi West 12.7 mph 26.5 mph N/A   Partly Cloudy
6:54 PM 36.0 °F 29.0 °F 17.1 °F 46% 29.78 in 10.0 mi West 9.2 mph - N/A   Clear
7:54 PM 35.1 °F 26.4 °F 18.0 °F 50% 29.79 in 10.0 mi WSW 12.7 mph - N/A   Clear
8:54 PM 33.1 °F 27.7 °F 18.0 °F 54% 29.80 in 10.0 mi WSW 5.8 mph - N/A   Clear
9:54 PM 30.9 °F 27.5 °F 18.0 °F 59% 29.81 in 10.0 mi SW 3.5 mph - N/A   Clear
10:54 PM 28.9 °F 23.9 °F 18.0 °F 64% 29.83 in 10.0 mi SW 4.6 mph - N/A   Clear
11:54 PM 30.0 °F 23.2 °F 18.0 °F 61% 29.82 in 10.0 mi WSW 6.9 mph - N/A   Clear